Zurück zum Katalog

STARLINK-30867

AktivKommunikationVLEO
NORAD 58231·PAYLOAD·🇺🇸 United States

Gestartet Nov 8, 2023 von Cape Canaveral Space Force Station

Loading…

Nächste Überflüge (nächste 24 Stunden)

TLE

AktuellSource: CelesTrak SupGP

Epoche: Sep 15, 2026, 02:19 UTC

1 58231C 23171B   26258.09701389  .00025005  00000+0  90569-3 0  2584
2 58231  43.0019 295.2539 0001274 257.2676 172.2603 15.27565839    15

Verfolge STARLINK-30867 in Echtzeit mit AllMySat

Download on the App Store